User: anonymous   Login
Location: Caltech
(34.1382°N, 118.1253°W)
Time: 06:51:15
(UTC-08:00)
Language:

Cosmos 1484 Rocket - Orbit

View from above orbital plane
View from above orbital plane
View from above satellite
View from above satellite

Ground track
Ground track

The orbit data is extracted from the following two-line orbital elements,

1 14208U 83075B   17346.96745669 +.00000469 +00000-0 +31764-4 0  9995
2 14208 097.3405 350.2077 0037898 232.8033 126.9736 15.10576598874195
Epoch (UTC): 12 December 2017 23:13:08
Eccentricity: 0.0037898
inclination: 97.3405°
perigee height: 508 km
apogee height: 560 km
right ascension of ascending node: 350.2077°
argument of perigee: 232.8033°
revolutions per day: 15.10576598
mean anomaly at epoch: 126.9736°
orbit number at epoch: 87419

The dashed part of the orbit path shows where the satellite is in the earth's shadow,  

DLR